Location: �clusier
(49.9361°N, 2.7869°E)
Time: 22:58:41
(UTC+00:00)

BREEZE-M DEB (TANK) - Pass Details

Date: 16 June 2021
Orbit: 318 x 12038 km, 49.6° (Epoch: 02 August)

Event Time Altitude Azimuth Distance (km) Brightness Sun altitude
Rises 21:34:12 0° 221° (SW) 2,066 4.9 -10.8°
Reaches altitude 10° 21:35:47 10° 209° (SSW) 1,345 3.8 -10.9°
Maximum altitude 21:38:08 32° 142° (SE) 861 2.6 -11.1°
Drops below altitude 10° 21:42:37 10° 78° (ENE) 2,607 5.4 -11.5°
Sets 21:47:07 0° 71° (ENE) 4,696 6.8 -11.8°
